View from above orbital plane
|
View from above satellite
|
Ground track
|
The orbit data is extracted from the following two-line orbital elements,
1 10513U 77116B 21016.55401896 -.00000034 00000-0 46576-4 0 9990
2 10513 65.8335 112.4949 0017723 125.1584 246.6355 13.78561644168201
Epoch (UTC): | 16 January 2021 13:17:47 |
Eccentricity: | 0.0017723 |
inclination: | 65.8335° |
perigee height: | 956 km |
apogee height: | 982 km |
right ascension of ascending node: | 112.4949° |
argument of perigee: | 125.1584° |
revolutions per day: | 13.78561644 |
mean anomaly at epoch: | 246.6355° |
orbit number at epoch: | 16820 |
The dashed part of the orbit path shows where the satellite is in the earth's shadow,
|
|